This demonstration page uses our WeatherBlox Daily Observations layout. Learn more.

Left ArrowRight Arrow

Hourly Observations for January 17, 2017

Temp ( °F °C ) Dew Point ( °F °C ) Humidity (%) Winds ( mph kmh ) Pressure ( in mb ) Visibility ( mi km ) Precip ( " mm )
12:52 am 00:52 Cloudy 42 5.6 35 1.7 76 76 W 12 19 29.98 1015 10 16 0.00 0.00
1:52 am 01:52 Cloudy 41 5 34 1.1 76 76 W 10 17 29.99 1016 10 16 0.00 0.00
2:43 am 02:43 Cloudy 41 5 35 1.7 79 79 W 10 17 30.03 1017 10 16 0.00 0.00
2:52 am 02:52 Cloudy 40 4.4 35 1.7 83 83 W 10 17 30.00 1016 10 16 0.00 0.00
3:52 am 03:52 Cloudy 40 4.4 35 1.7 83 83 W 10 17 30.01 1016 10 16 0.00 0.00
4:52 am 04:52 Cloudy 40 4.4 35 1.7 83 83 W 13 20 30.02 1017 10 16 0.00 0.00
5:00 am 05:00 Cloudy 39 4 36 2 87 87 WSW 9 15 30.09 1019 10 16 0.00 0.00
5:52 am 05:52 Cloudy 39 3.9 35 1.7 86 86 W 12 19 30.04 1017 10 16 0.00 0.00
6:52 am 06:52 Cloudy 39 3.9 35 1.7 86 86 W 10 17 30.06 1018 9 14 0.00 0.00
7:21 am 07:21 Cloudy with Mist and Fog 38 3.3 36 2.2 93 93 W 10 17 30.12 1020 4 6 0.00 0.00
7:52 am 07:52 Cloudy 37 2.8 35 1.7 93 93 WNW 9 15 30.06 1018 10 16 0.00 0.00
8:34 am 08:34 Cloudy with Mist and Fog 37 3 36 2 93 93 W 10 17 30.15 1021 2 3 0.00 0.00
8:42 am 08:42 Cloudy with Mist and Fog 37 3 36 2 93 93 W 9 15 30.15 1021 2 3 0.00 0.00
8:52 am 08:52 Cloudy with Mist and Fog 37 2.8 36 2.2 96 96 W 10 17 30.10 1019 3 4 0.00 0.00
9:01 am 09:01 Cloudy with Mist and Fog 37 2.8 35 1.7 93 93 W 12 19 30.15 1021 5 8 0.00 0.00
9:52 am 09:52 Cloudy with Mist and Fog 38 3.3 36 2.2 93 93 W 9 15 30.12 1020 4 6 0.00 0.00
10:52 am 10:52 Cloudy 38 3.3 36 2.2 93 93 WSW 13 20 30.13 1020 9 14 0.00 0.00
11:38 am 11:38 Cloudy 39 4 36 2 87 87 W 12 19 30.18 1022 10 16 0.00 0.00
11:52 am 11:52 Cloudy 39 3.9 35 1.7 86 86 W 12 19 30.13 1020 10 16 0.00 0.00
12:30 pm 12:30 Cloudy 39 4 36 2 87 87 WNW 12 19 30.15 1021 10 16 0.00 0.00
12:52 pm 12:52 Cloudy 39 3.9 35 1.7 86 86 WNW 10 17 30.11 1020 10 16 0.00 0.00
1:12 pm 13:12 Cloudy 39 4 36 2 87 87 WNW 12 19 30.15 1021 10 16 0.00 0.00
1:32 pm 13:32 Cloudy 39 4 36 2 87 87 W 12 19 30.18 1022 10 16 0.00 0.00
1:52 pm 13:52 Cloudy 39 3.9 35 1.7 86 86 W 8 13 30.12 1020 10 16 0.00 0.00
2:11 pm 14:11 Cloudy 39 3.9 35 1.7 86 86 W 12 19 30.18 1022 10 16 0.00 0.00
2:31 pm 14:31 Cloudy 39 3.9 35 1.7 86 86 W 13 20 30.15 1021 10 16 0.00 0.00
2:52 pm 14:52 Cloudy 39 3.9 34 1.1 82 82 WNW 13 20 30.13 1020 10 16 0.00 0.00
3:10 pm 15:10 Cloudy 39 4 34 1 81 81 W 12 19 30.18 1022 10 16 0.00 0.00
3:50 pm 15:50 Cloudy 37 3 36 2 93 93 WNW 9 15 30.21 1023 10 16 0.00 0.00
3:52 pm 15:52 Cloudy 38 3.3 34 1.1 86 86 WNW 9 15 30.16 1021 10 16 0.00 0.00
4:52 pm 16:52 Cloudy 38 3.3 35 1.7 89 89 W 8 13 30.15 1021 10 16 0.00 0.00
5:52 pm 17:52 Cloudy 38 3.3 35 1.7 89 89 WNW 6 9 30.18 1022 10 16 0.00 0.00
6:52 pm 18:52 Cloudy 38 3.3 35 1.7 89 89 W 8 13 30.19 1023 10 16 0.00 0.00
7:52 pm 19:52 Cloudy 38 3.3 35 1.7 89 89 W 6 9 30.20 1023 10 16 0.00 0.00
8:52 pm 20:52 Cloudy 37 2.8 35 1.7 93 93 NW 3 6 30.19 1022 10 16 0.00 0.00
9:13 pm 21:13 Cloudy 37 2.8 35 1.7 93 93 N 7 11 30.21 1023 10 16 0.00 0.00
9:52 pm 21:52 Cloudy 37 2.8 35 1.7 93 93 NW 5 7 30.19 1023 9 14 0.00 0.00
10:52 pm 22:52 Cloudy with Mist and Fog 37 2.8 35 1.7 93 93 WSW 5 7 30.22 1023 6 10 0.00 0.00
11:10 pm 23:10 Cloudy with Mist and Fog 36 2 36 2 100 100 SW 3 6 30.27 1025 2 3 0.00 0.00
11:31 pm 23:31 Cloudy with Mist and Fog 36 2.2 35 1.7 97 97 SW 7 11 30.27 1025 3 4 0.00 0.00
11:48 pm 23:48 Cloudy with Mist and Fog 37 3 36 2 93 93 WSW 7 11 30.24 1024 3 5 0.00 0.00
11:52 pm 23:52 Cloudy with Mist and Fog 37 2.8 35 1.7 93 93 WSW 7 11 30.22 1023 3 4 0.00 0.00

Powered by AerisWeather